SCP
0 0 0 0 0 0 0 0 0 0 0 0 0 0 0 0 0 0 0 0 0 0 0 0 0 0 0 0 0 0 0 0 0 0 0 0 0 0 0 0 -0 0 0 0 0 0 0 0 0 0 0 0 0 0
0 0 0 0 0 0 0 0 0 0 0 0 0 0 0 0 0 0 0 0 0 0 0 0 0 0 0 0 0 0 0 0 0 0 0 0 0 0 0 0 0 0 0 0 0 0 0 0 0 0 0 0 0 0
0 0 0 0 0 0 0 0 0 0 0 0 0 0 0 0 0 0 0 0 0 0 0 0 0 0 0 0 0 0 0 0 -0 0 0 0 0 -0 0 0 0 0 0 0 0 0 0 0 0 0 0 0 0 0
0 0 0 0 0 0 0 0 0 0 0 0 0 0 0 0 0 0 0 0 0 0 0 0 0 0 0 0 0 0 0 0 0 0 0 0 0 0 0 0 0 -0 -0 0 0 0 0 0 0 0 0 0 0 0
-0 0 0 0 0 0 0 0 0 0 0 0 0 0 0 0 0 0 0 0 0 0 0 0 0 0 0 0 0 0 0 0 0 0 0 0 0 0 0 0 0 0 0 0 0 0 0 0 0 0 0 0 0 0
-0 0 0 0 0 0 0 0 0 0 0 0 0 0 0 0 0 0 0 0 0 0 0 0 0 0 0 0 0 0 0 0 0 0 0 0 0 0 0 0 0 0 0 0 0 0 0 0 0 0 0 0 0 0
0 0 0 0 0 0 0 0 0 0 0 0 0 0 0 0 0 0 0 0 0 0 0 0 0 0 0 0 0 0 0 0 0 0 0 0 0 0 0 0 0 -0 0 -0 0 0 0 0 0 0 0 0 0 0
0 0 0 -0 0 0 0 0 0 0 0 0 0 0 0 0 0 0 0 0 0 0 0 0 0 0 0 0 0 0 0 0 0 0 0 0 0 0 0 0 0 0 0 0 0 0 0 0 0 0 0 0 0 0
0 0 0 0 0 0 0 0 0 0 0 0 0 0 0 0 0 0 0 0 0 0 0 0 0 0 0 0 0 0 0 0 0 0 0 0 0 0 0 0 0 0 0 0 0 0 0 0 0 0 0 0 0 0
0 0 0 0 0 0 0 0 0 0 0 0 0 0 0 0 0 0 0 0 0 0 0 0 0 0 0 0 0 0 0 0 -0 -0 0 0 0 0 0 0 0 0 0 0 0 0 0 0 0 0 0 0 0 0
0 0 0 0 0 0 0 0 0 0 0 0 0 0 0 0 0 0 0 0 0 0 0 0 0 0 0 0 0 0 0 0 0 0 0 0 0 0 0 0 0 0 0 0 0 0 0 0 0 0 0 0 0 0
0 0 0 0 0 0 0 0 0 0 0 0 0 0 0 0 0 0 0 0 0 0 0 0 0 0 0 0 0 0 -0 -0 -0 0 0 0 0 0 0 0 0 0 0 0 0 0 0 0 0 0 0 0 0 0
0 0 0 0 0 0 0 0 0 0 0 0 0 0 0 0 0 0 0 0 0 0 0 0 0 0 0 0 0 0 0 0 0 0 0 0 0 0 0 0 0 0 0 0 0 0 0 0 0 0 0 0 0 0
0 0 0 0 0 0 0 0 0 0 0 0 0 0 0 0 0 0 0 0 0 0 0 0 0 0 0 0 0 0 0 0 0 0 0 0 0 0 0 0 0 0 0 0 0 0 0 0 0 0 0 0 0 0
0 0 0 0 0 0 0 0 0 0 0 0 0 0 0 0 0 0 0 0 0 0 0 0 0 0 0 0 0 0 0 0 0 0 0 0 0 0 0 0 0 0 0 0 0 0 0 0 0 0 0 0 0 0
-0 0 0 0 0 0 0 0 0 0 0 0 0 0 0 0 0 0 0 0 0 0 0 0 0 0 0 0 0 0 0 0 0 0 0 0 0 0 0 0 0 0 0 0 0 0 0 0 0 0 0 0 0 0
-0 0 0 0 0 0 0 0 0 0 0 0 0 0 0 0 0 0 0 0 0 0 0 0 0 0 0 0 0 0 0 0 0 0 0 0 0 0 0 0 0 0 0 0 0 0 0 0 0 0 0 0 0 0
0 0 0 0 0 0 0 0 0 0 0 0 0 0 0 0 0 0 0 0 0 0 0 0 0 0 0 0 0 0 0 0 0 0 0 0 0 0 0 0 0 0 0 0 0 0 0 0 0 0 0 0 0 0
0 0 0 0 0 0 0 0 0 0 0 0 0 0 0 0 0 0 0 0 0 0 0 0 0 0 0 0 0 0 0 0 0 0 0 0 0 0 0 0 0 0 0 0 0 0 0 0 0 0 0 0 0 0
-0 -0 -0 -0 0 0 0 0 0 0 0 0 0 0 0 0 0 0 0 0 0 0 0 0 0 0 0 0 0 0 0 0 0 0 0 0 0 0 0 0 0 0 0 0 0 0 0 0 0 0 0 0 0 0
0 0 -0 0 0 0 0 0 0 0 0 0 0 0 0 0 0 0 0 0 0 0 0 0 0 0 0 0 0 0 0 0 0 0 0 0 0 0 0 0 0 0 0 0 0 0 0 0 0 0 0 0 0 0
0 0 0 0 -0 0 0 0 0 0 0 0 0 0 0 0 0 0 0 0 0 0 0 0 0 0 0 0 0 0 0 0 0 0 0 0 0 0 0 0 0 0 0 0 0 0 0 0 0 0 0 0 0 0
0 0 0 0 0 0 0 0 0 0 0 0 0 0 0 0 0 0 0 0 0 0 0 0 0 0 0 0 0 0 0 0 0 0 0 0 0 0 0 0 0 0 0 0 0 0 0 0 0 0 0 0 0 0
0 0 0 0 0 0 0 0 0 0 0 0 0 0 0 0 0 0 0 0 0 0 0 0 0 0 0 0 0 0 0 0 0 0 0 0 0 0 0 0 0 0 0 0 0 0 0 0 0 0 0 0 0 0
0 0 0 0 0 0 0 0 0 0 0 0 0 0 0 0 0 0 0 0 0 0 0 0 0 0 0 0 0 0 0 0 0 0 0 0 0 0 0 0 0 0 0 0 0 0 0 0 0 0 0 0 0 0
0 0 0 0 0 0 0 0 0 0 0 0 0 0 0 0 0 0 0 0 0 0 0 0 0 0 0 0 0 0 0 0 0 0 0 0 0 0 0 0 0 0 0 0 0 0 0 0 0 0 0 0 0 0
0 0 0 0 0 0 0 0 0 0 0 0 0 0 0 0 0 0 0 0 0 0 0 0 0 0 0 0 0 0 0 0 0 0 0 0 0 0 0 0 0 0 0 0 0 0 0 0 0 0 0 0 0 0
0 0 0 0 0 0 0 0 0 0 0 0 0 0 0 0 0 0 0 0 0 0 0 0 0 0 0 0 0 0 0 0 0 0 0 0 0 0 0 0 0 0 0 0 0 0 0 0 0 0 0 0 0 0
0 0 0 0 0 0 0 0 0 0 0 0 0 0 0 0 0 0 0 0 0 0 0 0 0 0 0 0 0 0 0 0 0 0 0 0 0 0 0 0 0 0 0 0 0 0 0 0 0 0 0 0 0 0
0 0 0 0 0 0 0 0 0 0 0 0 0 0 0 0 0 0 0 0 0 0 0 0 0 0 0 0 0 0 0 0 0 0 0 0 0 0 0 0 0 0 0 0 0 0 0 0 -0 -0 0 0 0 0
0 0 0 0 0 0 0 0 0 0 0 0 0 0 0 0 0 0 0 0 0 0 0 0 0 0 0 0 0 0 0 0 0 0 0 0 0 0 0 0 0 0 0 -0 -0 0 0 -0 0 0 0 0 0 0
0 0 0 0 0 0 0 0 0 0 0 0 0 0 0 0 0 0 0 0 0 0 0 0 0 0 0 0 0 0 0 0 0 0 0 0 0 0 0 0 -0 -0 -0 0 0 0 0 0 0 0 0 0 0 0
0 0 0 0 0 0 0 0 0 0 0 0 0 0 0 0 0 0 0 -0 0 0 0 0 0 0 0 0 0 0 0 0 0 0 0 -0 -0 -0 -0 -0 0 0 0 0 0 0 0 0 0 0 -0 -0 -0 -0
Wind_Speed_500mb
82 81 81 78 79 75 76 77 77 76 74 72 69 68 65 66 64 60 61 54 46 29 43 41 47 44 28 23 17 6 4 13 7 15 11 10 11 11 4 6 14 15 13 18 20 23 30 19 6 20 11 1 5 8
79 95 78 79 77 77 76 78 78 74 74 71 67 67 67 66 68 62 60 56 48 49 30 18 43 66 61 57 43 29 16 17 13 7 6 3 6 5 7 6 4 8 11 7 17 10 2 40 14 29 25 30 24 20
83 78 94 78 73 76 77 74 71 69 71 67 64 62 63 65 68 65 63 54 41 42 41 58 59 70 63 68 63 39 35 45 46 67 7 7 13 6 16 19 11 8 9 7 3 9 18 31 42 29 36 34 27 20
82 83 87 69 70 73 73 69 67 64 63 62 61 62 64 65 67 64 65 59 48 16 10 25 28 37 36 54 58 72 86 49 48 29 19 8 5 3 11 12 8 10 10 10 10 13 17 42 45 52 50 35 31 31
74 63 56 58 60 68 72 70 63 60 60 59 59 58 60 64 65 60 58 58 53 44 6 11 24 30 37 46 57 56 66 69 53 19 13 14 8 3 4 2 9 12 11 9 9 11 9 13 12 29 42 47 37 31
46 38 42 51 61 72 67 66 58 54 53 55 55 54 58 62 63 57 36 54 49 47 14 5 23 37 35 38 50 53 59 63 65 23 16 20 16 10 9 10 12 35 38 45 16 20 25 25 17 16 23 33 34 30
50 46 45 49 51 49 57 53 52 52 54 49 49 52 56 62 66 55 19 18 31 55 16 6 7 30 53 48 45 47 45 35 46 33 21 11 16 19 6 10 5 18 21 23 18 18 20 21 15 18 15 7 21 20
48 50 48 53 53 57 45 46 47 51 51 48 47 49 52 58 52 54 36 19 21 40 19 6 8 4 17 13 14 23 20 28 21 20 12 13 14 11 10 12 23 21 16 19 22 23 30 25 21 19 18 22 26 24
39 35 40 46 49 46 46 48 49 48 49 47 45 39 39 40 27 48 46 44 38 25 5 6 6 6 9 7 11 10 15 5 8 5 11 21 10 11 15 16 30 22 19 14 13 13 14 19 13 10 18 25 26 20
30 36 41 44 42 43 45 48 49 51 50 45 42 22 12 16 30 26 16 15 17 21 21 7 20 7 12 3 5 5 9 5 6 8 5 7 8 8 11 13 21 21 20 14 14 10 9 12 11 10 16 19 23 25
27 34 39 40 39 38 39 45 50 49 47 44 22 14 26 38 33 20 16 15 13 7 17 20 40 8 17 5 7 10 6 4 6 5 6 2 6 3 13 19 16 12 12 13 18 18 17 13 18 18 19 24 23 22
28 33 37 37 34 34 41 42 47 53 34 34 25 39 31 14 10 9 8 3 5 11 8 10 21 39 19 20 7 7 6 2 11 8 6 6 4 10 14 13 11 10 10 11 16 18 18 19 23 22 20 22 23 21
29 32 32 31 34 33 37 43 47 45 37 43 13 12 13 6 7 12 13 4 3 5 11 8 9 23 17 25 6 7 10 9 8 6 7 6 6 4 5 11 12 9 10 13 15 15 17 19 20 20 18 19 21 19
21 24 27 32 32 32 32 39 45 50 46 9 10 9 9 4 8 8 9 8 4 3 3 11 5 9 11 7 6 8 5 6 2 6 11 3 8 5 3 3 13 10 11 11 12 14 16 18 21 20 18 20 19 18
21 22 23 27 29 31 33 38 52 58 12 8 12 9 6 8 13 8 9 9 14 10 8 5 8 13 6 7 6 5 9 9 11 10 2 8 7 4 3 2 12 14 15 16 18 18 19 21 23 25 24 25 22 23
41 50 35 34 34 36 42 45 56 22 9 8 13 8 7 7 5 11 17 9 17 20 7 8 6 6 10 7 7 8 7 12 1 4 8 8 7 6 7 11 16 22 22 22 24 26 29 30 31 34 35 33 31 29
26 29 33 29 26 24 27 22 10 14 13 10 7 23 17 20 13 7 11 15 21 10 4 4 6 2 4 4 3 11 3 2 2 6 9 10 8 11 15 22 28 34 35 36 37 38 40 41 40 40 42 42 38 37
24 27 28 18 15 26 23 11 11 14 14 16 10 11 23 16 8 13 14 22 8 6 8 4 8 9 5 4 1 3 7 7 14 13 15 17 17 20 25 31 35 38 40 42 42 44 43 41 42 45 42 38 36 36
48 40 21 22 23 11 10 11 12 10 12 13 19 17 19 20 36 24 15 12 23 17 11 10 10 5 3 3 5 11 6 5 5 14 18 20 26 30 31 34 36 37 38 41 41 42 41 41 42 39 35 27 29 30
22 22 20 16 13 10 12 13 12 15 5 8 11 11 13 15 13 26 35 28 20 13 14 9 2 5 6 3 3 3 8 16 23 23 25 26 26 30 34 37 39 39 39 40 41 40 38 39 37 33 28 26 21 21
19 25 27 19 21 22 15 10 13 11 15 14 13 6 10 15 17 21 25 26 20 13 5 8 9 6 2 2 3 8 12 16 17 12 28 31 30 34 37 38 36 35 36 37 37 35 32 34 32 27 21 17 17 16
15 12 13 16 13 12 15 16 12 9 11 10 10 10 12 7 11 16 13 27 12 10 7 8 8 6 9 11 11 11 11 12 14 28 31 34 35 35 37 36 33 36 35 34 31 29 28 27 24 20 16 15 14 13
17 10 13 13 12 13 7 9 9 10 7 5 7 7 6 7 8 9 11 10 8 13 9 8 7 10 13 16 14 15 17 24 31 32 34 34 33 34 35 34 30 29 30 30 26 23 20 19 15 13 13 13 14 16
15 15 20 18 25 5 6 13 10 8 8 6 6 6 5 7 5 9 6 5 10 9 7 9 12 19 21 19 22 24 26 26 33 36 34 34 35 33 29 29 26 23 22 22 18 14 12 9 9 11 13 16 20 24
12 26 19 15 23 13 12 9 11 7 7 7 5 6 3 6 5 6 3 2 7 12 13 12 14 22 32 32 29 28 27 27 31 35 31 25 26 26 23 21 18 15 12 12 9 9 12 15 18 21 23 25 27 29
18 22 13 9 12 9 5 7 8 6 5 6 7 5 4 4 6 4 1 2 6 11 18 22 23 26 27 28 28 27 27 25 20 19 23 21 19 14 9 8 6 5 5 8 10 13 15 17 19 21 24 29 34 39
13 8 13 19 9 6 9 12 11 8 8 6 5 7 3 6 4 1 5 6 9 13 18 21 21 21 24 24 23 22 20 16 14 13 12 11 7 3 1 3 5 9 11 12 13 15 18 22 27 32 35 33 36 41
13 17 8 18 15 19 6 6 8 7 4 9 3 6 4 3 4 5 6 13 15 17 19 20 20 20 19 16 13 12 11 9 8 6 4 4 5 6 7 7 10 12 15 19 22 26 30 33 37 41 42 42 38 34
13 14 6 10 10 13 13 5 2 5 7 4 4 2 2 3 9 15 17 18 18 18 18 18 17 16 14 12 9 6 6 6 6 6 8 10 10 12 11 16 21 24 25 25 30 35 37 39 41 45 46 45 42 40
17 17 8 8 8 8 13 13 8 10 7 8 10 14 15 17 19 20 20 20 19 17 15 13 10 7 3 3 6 7 7 8 8 9 11 13 16 18 21 25 27 32 36 37 36 35 38 42 42 43 45 45 44 45
13 12 12 12 8 7 14 24 31 33 32 32 34 31 17 12 17 12 10 11 12 11 8 5 3 5 6 6 6 7 10 9 10 14 17 19 21 24 27 30 33 36 38 39 39 39 40 40 40 42 42 42 42 47
16 15 7 5 4 10 7 6 8 8 7 7 9 7 6 4 3 4 3 4 9 10 8 6 8 7 6 7 8 9 12 14 16 18 21 23 25 28 31 32 33 37 38 38 38 39 40 44 45 46 50 51 53 55
6 9 9 4 4 5 14 8 7 3 7 5 6 6 4 2 3 2 2 2 3 6 7 6 6 7 9 11 12 15 17 17 20 22 26 27 28 29 30 30 31 33 37 39 39 41 43 46 50 53 56 61 65 68
Wind_Direction_500mb
258 252 246 243 241 236 234 238 236 232 231 228 227 226 225 223 221 219 228 233 228 242 251 248 240 243 232 220 239 280 305 224 234 228 232 196 212 229 300 280 222 200 214 222 220 230 237 184 126 175 183 290 6 13
259 255 242 240 239 236 234 234 231 229 228 225 223 224 225 223 220 217 226 232 239 238 250 258 252 245 242 249 249 220 237 275 232 215 238 281 218 173 178 240 308 259 226 205 201 214 239 188 221 218 209 218 216 197
254 257 248 234 235 234 234 230 227 225 220 217 220 224 224 221 217 215 221 221 219 240 260 260 257 255 252 254 251 245 247 246 258 249 285 247 247 195 240 241 247 231 226 211 245 247 248 237 235 243 226 239 249 246
249 258 243 224 231 233 229 221 219 216 214 214 219 223 222 219 215 212 217 222 216 224 255 259 258 246 259 256 254 244 246 239 245 241 230 252 257 206 236 257 233 233 152 200 265 282 284 274 257 247 240 235 243 250
252 224 217 224 229 235 219 216 210 210 210 214 221 222 218 214 211 210 217 222 222 204 229 259 268 247 254 265 264 258 241 240 236 235 234 249 223 197 208 350 250 202 184 191 243 249 256 273 312 247 236 230 242 253
239 240 224 226 228 235 211 200 197 203 206 215 217 215 213 208 203 201 204 217 219 223 242 249 265 261 255 251 251 243 238 235 233 229 235 205 183 229 193 206 220 213 234 239 242 245 246 264 282 294 267 252 245 229
226 231 231 222 224 202 198 189 197 205 211 207 210 210 208 207 202 183 167 188 196 219 220 281 270 243 247 240 243 249 244 232 229 230 231 213 199 193 229 249 250 208 216 226 230 262 276 271 279 305 310 234 203 197
218 233 230 208 195 195 181 192 200 208 199 198 202 201 204 206 200 191 178 157 149 186 204 224 261 297 206 210 218 210 201 211 227 229 203 205 192 194 231 218 205 209 213 218 234 243 250 271 271 267 253 205 205 203
212 190 183 180 177 182 191 199 199 193 188 183 185 190 192 195 195 202 211 214 229 221 243 293 149 242 193 254 251 221 218 165 239 261 225 175 200 209 206 190 193 197 200 210 240 249 250 253 261 242 213 214 218 216
173 181 176 170 179 187 190 189 186 183 178 170 173 176 174 164 183 188 191 199 202 210 226 221 221 202 177 160 286 277 221 229 192 206 202 278 207 139 172 161 187 199 207 205 184 163 169 169 153 165 174 182 192 179
168 170 167 167 168 170 171 177 177 170 169 174 167 141 133 153 159 171 193 182 173 200 211 222 212 208 225 153 204 244 243 184 235 201 211 178 269 130 175 169 183 196 201 201 189 180 187 177 163 162 165 170 169 164
170 165 165 164 168 178 175 174 173 172 171 169 151 134 133 168 170 163 182 170 167 205 204 171 200 201 197 196 173 208 228 154 226 115 224 216 209 123 170 184 180 190 203 192 180 176 173 164 158 161 162 158 152 150
151 157 160 169 172 171 172 178 178 176 166 146 147 134 142 160 174 184 173 261 210 207 188 172 192 173 163 198 215 183 216 225 111 172 214 227 69 77 195 198 179 179 180 177 178 174 164 161 153 153 150 140 131 139
157 165 168 173 175 174 173 173 178 178 161 145 147 122 167 166 226 182 183 181 105 206 2 208 210 206 186 181 199 221 173 113 221 183 227 47 20 351 276 213 168 169 175 166 162 158 155 150 147 146 144 131 129 138
158 157 164 174 177 180 181 179 179 168 152 158 130 170 177 136 64 57 64 113 23 356 350 237 219 197 215 240 205 135 188 194 200 219 75 357 350 350 3 115 134 148 145 155 151 147 141 135 135 134 129 124 128 125
146 128 115 143 147 164 183 180 168 172 113 87 55 87 37 86 359 39 29 44 358 347 315 246 262 246 214 194 210 198 143 210 193 6 15 13 44 75 118 129 122 121 128 134 136 136 134 132 131 126 122 120 119 118
137 118 118 134 163 152 157 168 72 67 70 57 54 67 64 63 80 68 31 0 352 356 57 327 267 4 353 42 342 354 343 49 195 73 64 80 97 112 116 119 117 116 121 124 123 124 123 121 121 123 120 113 114 113
127 139 141 168 158 151 126 72 72 63 65 53 65 38 65 67 81 49 28 13 29 49 12 117 326 51 18 288 129 327 41 69 85 81 88 102 111 112 119 116 113 117 119 120 121 118 118 121 119 107 105 105 107 101
115 128 150 140 136 115 79 54 46 86 71 84 92 75 78 83 56 55 55 67 67 78 93 41 62 66 75 351 346 33 82 110 114 94 97 106 109 112 114 113 115 117 119 118 120 117 114 112 105 102 99 103 101 97
123 152 149 144 154 84 77 48 56 84 82 108 99 76 76 77 62 44 51 59 68 56 48 42 55 333 305 327 337 44 92 144 134 118 105 105 108 117 117 118 118 120 119 117 113 110 110 108 103 98 95 91 90 88
94 105 114 121 72 68 80 61 67 82 112 93 107 91 86 58 42 34 28 26 60 36 67 35 7 3 352 5 128 136 148 163 168 159 134 122 125 127 124 120 121 120 117 114 112 109 109 102 99 95 89 86 76 64
140 134 101 71 77 74 71 49 77 79 72 87 56 53 47 39 32 23 35 44 58 30 31 16 27 79 111 111 108 129 145 168 156 141 132 129 126 123 120 119 126 120 116 108 104 102 99 96 92 87 77 63 52 34
137 116 68 55 86 61 38 43 68 39 67 65 56 51 41 47 47 26 70 59 65 14 36 48 76 92 113 110 113 114 127 141 136 130 130 128 128 124 123 122 118 114 110 105 98 91 88 80 71 59 43 25 6 348
105 59 36 40 35 45 34 32 44 54 71 60 60 68 39 33 51 61 74 49 11 30 74 93 110 108 111 117 111 116 122 128 128 126 128 132 130 122 119 113 110 108 104 94 84 74 62 43 14 358 345 331 322 315
92 16 20 6 23 33 36 20 4 38 65 35 81 65 19 22 69 60 66 60 41 70 92 111 127 130 116 110 109 108 117 128 129 127 121 118 117 115 113 109 105 98 85 70 44 12 351 339 329 325 320 317 316 316
69 22 44 7 7 55 360 62 33 19 10 66 42 13 46 69 68 82 38 152 124 112 113 118 122 123 116 114 117 121 121 122 122 127 122 121 116 112 109 100 91 57 5 336 331 321 317 315 317 319 321 322 322 321
53 344 35 29 27 39 46 45 44 56 59 42 349 341 54 73 89 119 150 144 142 138 132 130 130 130 125 125 124 124 126 128 136 140 131 115 104 86 345 320 328 324 321 317 316 319 323 324 323 322 321 322 322 320
60 36 55 4 52 37 89 42 35 28 10 344 305 41 74 55 114 155 158 144 141 134 131 132 130 130 129 129 132 135 135 141 151 159 186 242 271 282 296 287 303 308 311 317 321 323 322 321 321 318 317 318 319 319
40 3 55 26 45 50 46 56 301 325 320 349 103 97 153 81 136 136 138 139 138 134 131 131 134 133 133 140 140 152 190 210 230 246 274 284 298 317 319 320 319 316 315 317 317 316 315 313 312 313 316 317 319 320
12 26 94 51 52 40 15 11 25 60 89 105 96 109 95 101 116 123 128 135 136 136 135 132 130 128 143 211 242 243 247 253 269 279 290 300 315 315 309 308 309 307 308 310 309 306 303 302 302 303 304 306 308 308
29 38 54 58 80 28 61 89 85 81 84 93 105 99 97 104 97 104 134 153 157 155 158 169 211 242 251 257 262 273 289 292 299 301 303 307 310 309 305 303 302 302 301 300 301 302 302 302 303 304 304 304 306 306
37 39 56 68 82 41 70 56 55 76 66 70 54 63 70 81 127 149 128 169 197 196 195 221 234 247 264 280 291 301 306 304 302 303 304 303 302 300 300 300 298 296 298 301 302 302 302 302 304 305 306 307 308 308
45 33 47 48 39 35 8 16 51 70 66 68 50 42 53 121 154 141 188 178 193 214 233 260 274 288 294 299 299 303 307 305 306 308 307 307 305 299 295 296 296 296 296 297 299 300 301 302 302 304 305 306 307 308
Wind_Speed_850mb
82 81 81 78 79 75 76 77 77 76 74 72 69 68 65 66 64 60 61 54 46 29 43 41 47 44 28 23 17 6 4 13 7 15 11 10 11 11 4 6 14 15 13 18 20 23 30 19 6 20 11 1 5 8
79 95 78 79 77 77 76 78 78 74 74 71 67 67 67 66 68 62 60 56 48 49 30 18 43 66 61 57 43 29 16 17 13 7 6 3 6 5 7 6 4 8 11 7 17 10 2 40 14 29 25 30 24 20
83 78 94 78 73 76 77 74 71 69 71 67 64 62 63 65 68 65 63 54 41 42 41 58 59 70 63 68 63 39 35 45 46 67 7 7 13 6 16 19 11 8 9 7 3 9 18 31 42 29 36 34 27 20
82 83 87 69 70 73 73 69 67 64 63 62 61 62 64 65 67 64 65 59 48 16 10 25 28 37 36 54 58 72 86 49 48 29 19 8 5 3 11 12 8 10 10 10 10 13 17 42 45 52 50 35 31 31
74 63 56 58 60 68 72 70 63 60 60 59 59 58 60 64 65 60 58 58 53 44 6 11 24 30 37 46 57 56 66 69 53 19 13 14 8 3 4 2 9 12 11 9 9 11 9 13 12 29 42 47 37 31
46 38 42 51 61 72 67 66 58 54 53 55 55 54 58 62 63 57 36 54 49 47 14 5 23 37 35 38 50 53 59 63 65 23 16 20 16 10 9 10 12 35 38 45 16 20 25 25 17 16 23 33 34 30
50 46 45 49 51 49 57 53 52 52 54 49 49 52 56 62 66 55 19 18 31 55 16 6 7 30 53 48 45 47 45 35 46 33 21 11 16 19 6 10 5 18 21 23 18 18 20 21 15 18 15 7 21 20
48 50 48 53 53 57 45 46 47 51 51 48 47 49 52 58 52 54 36 19 21 40 19 6 8 4 17 13 14 23 20 28 21 20 12 13 14 11 10 12 23 21 16 19 22 23 30 25 21 19 18 22 26 24
39 35 40 46 49 46 46 48 49 48 49 47 45 39 39 40 27 48 46 44 38 25 5 6 6 6 9 7 11 10 15 5 8 5 11 21 10 11 15 16 30 22 19 14 13 13 14 19 13 10 18 25 26 20
30 36 41 44 42 43 45 48 49 51 50 45 42 22 12 16 30 26 16 15 17 21 21 7 20 7 12 3 5 5 9 5 6 8 5 7 8 8 11 13 21 21 20 14 14 10 9 12 11 10 16 19 23 25
27 34 39 40 39 38 39 45 50 49 47 44 22 14 26 38 33 20 16 15 13 7 17 20 40 8 17 5 7 10 6 4 6 5 6 2 6 3 13 19 16 12 12 13 18 18 17 13 18 18 19 24 23 22
28 33 37 37 34 34 41 42 47 53 34 34 25 39 31 14 10 9 8 3 5 11 8 10 21 39 19 20 7 7 6 2 11 8 6 6 4 10 14 13 11 10 10 11 16 18 18 19 23 22 20 22 23 21
29 32 32 31 34 33 37 43 47 45 37 43 13 12 13 6 7 12 13 4 3 5 11 8 9 23 17 25 6 7 10 9 8 6 7 6 6 4 5 11 12 9 10 13 15 15 17 19 20 20 18 19 21 19
21 24 27 32 32 32 32 39 45 50 46 9 10 9 9 4 8 8 9 8 4 3 3 11 5 9 11 7 6 8 5 6 2 6 11 3 8 5 3 3 13 10 11 11 12 14 16 18 21 20 18 20 19 18
21 22 23 27 29 31 33 38 52 58 12 8 12 9 6 8 13 8 9 9 14 10 8 5 8 13 6 7 6 5 9 9 11 10 2 8 7 4 3 2 12 14 15 16 18 18 19 21 23 25 24 25 22 23
41 50 35 34 34 36 42 45 56 22 9 8 13 8 7 7 5 11 17 9 17 20 7 8 6 6 10 7 7 8 7 12 1 4 8 8 7 6 7 11 16 22 22 22 24 26 29 30 31 34 35 33 31 29
26 29 33 29 26 24 27 22 10 14 13 10 7 23 17 20 13 7 11 15 21 10 4 4 6 2 4 4 3 11 3 2 2 6 9 10 8 11 15 22 28 34 35 36 37 38 40 41 40 40 42 42 38 37
24 27 28 18 15 26 23 11 11 14 14 16 10 11 23 16 8 13 14 22 8 6 8 4 8 9 5 4 1 3 7 7 14 13 15 17 17 20 25 31 35 38 40 42 42 44 43 41 42 45 42 38 36 36
48 40 21 22 23 11 10 11 12 10 12 13 19 17 19 20 36 24 15 12 23 17 11 10 10 5 3 3 5 11 6 5 5 14 18 20 26 30 31 34 36 37 38 41 41 42 41 41 42 39 35 27 29 30
22 22 20 16 13 10 12 13 12 15 5 8 11 11 13 15 13 26 35 28 20 13 14 9 2 5 6 3 3 3 8 16 23 23 25 26 26 30 34 37 39 39 39 40 41 40 38 39 37 33 28 26 21 21
19 25 27 19 21 22 15 10 13 11 15 14 13 6 10 15 17 21 25 26 20 13 5 8 9 6 2 2 3 8 12 16 17 12 28 31 30 34 37 38 36 35 36 37 37 35 32 34 32 27 21 17 17 16
15 12 13 16 13 12 15 16 12 9 11 10 10 10 12 7 11 16 13 27 12 10 7 8 8 6 9 11 11 11 11 12 14 28 31 34 35 35 37 36 33 36 35 34 31 29 28 27 24 20 16 15 14 13
17 10 13 13 12 13 7 9 9 10 7 5 7 7 6 7 8 9 11 10 8 13 9 8 7 10 13 16 14 15 17 24 31 32 34 34 33 34 35 34 30 29 30 30 26 23 20 19 15 13 13 13 14 16
15 15 20 18 25 5 6 13 10 8 8 6 6 6 5 7 5 9 6 5 10 9 7 9 12 19 21 19 22 24 26 26 33 36 34 34 35 33 29 29 26 23 22 22 18 14 12 9 9 11 13 16 20 24
12 26 19 15 23 13 12 9 11 7 7 7 5 6 3 6 5 6 3 2 7 12 13 12 14 22 32 32 29 28 27 27 31 35 31 25 26 26 23 21 18 15 12 12 9 9 12 15 18 21 23 25 27 29
18 22 13 9 12 9 5 7 8 6 5 6 7 5 4 4 6 4 1 2 6 11 18 22 23 26 27 28 28 27 27 25 20 19 23 21 19 14 9 8 6 5 5 8 10 13 15 17 19 21 24 29 34 39
13 8 13 19 9 6 9 12 11 8 8 6 5 7 3 6 4 1 5 6 9 13 18 21 21 21 24 24 23 22 20 16 14 13 12 11 7 3 1 3 5 9 11 12 13 15 18 22 27 32 35 33 36 41
13 17 8 18 15 19 6 6 8 7 4 9 3 6 4 3 4 5 6 13 15 17 19 20 20 20 19 16 13 12 11 9 8 6 4 4 5 6 7 7 10 12 15 19 22 26 30 33 37 41 42 42 38 34
13 14 6 10 10 13 13 5 2 5 7 4 4 2 2 3 9 15 17 18 18 18 18 18 17 16 14 12 9 6 6 6 6 6 8 10 10 12 11 16 21 24 25 25 30 35 37 39 41 45 46 45 42 40
17 17 8 8 8 8 13 13 8 10 7 8 10 14 15 17 19 20 20 20 19 17 15 13 10 7 3 3 6 7 7 8 8 9 11 13 16 18 21 25 27 32 36 37 36 35 38 42 42 43 45 45 44 45
13 12 12 12 8 7 14 24 31 33 32 32 34 31 17 12 17 12 10 11 12 11 8 5 3 5 6 6 6 7 10 9 10 14 17 19 21 24 27 30 33 36 38 39 39 39 40 40 40 42 42 42 42 47
16 15 7 5 4 10 7 6 8 8 7 7 9 7 6 4 3 4 3 4 9 10 8 6 8 7 6 7 8 9 12 14 16 18 21 23 25 28 31 32 33 37 38 38 38 39 40 44 45 46 50 51 53 55
6 9 9 4 4 5 14 8 7 3 7 5 6 6 4 2 3 2 2 2 3 6 7 6 6 7 9 11 12 15 17 17 20 22 26 27 28 29 30 30 31 33 37 39 39 41 43 46 50 53 56 61 65 68
Wind_Direction_850mb
258 252 246 243 241 236 234 238 236 232 231 228 227 226 225 223 221 219 228 233 228 242 251 248 240 243 232 220 239 280 305 224 234 228 232 196 212 229 300 280 222 200 214 222 220 230 237 184 126 175 183 290 6 13
259 255 242 240 239 236 234 234 231 229 228 225 223 224 225 223 220 217 226 232 239 238 250 258 252 245 242 249 249 220 237 275 232 215 238 281 218 173 178 240 308 259 226 205 201 214 239 188 221 218 209 218 216 197
254 257 248 234 235 234 234 230 227 225 220 217 220 224 224 221 217 215 221 221 219 240 260 260 257 255 252 254 251 245 247 246 258 249 285 247 247 195 240 241 247 231 226 211 245 247 248 237 235 243 226 239 249 246
249 258 243 224 231 233 229 221 219 216 214 214 219 223 222 219 215 212 217 222 216 224 255 259 258 246 259 256 254 244 246 239 245 241 230 252 257 206 236 257 233 233 152 200 265 282 284 274 257 247 240 235 243 250
252 224 217 224 229 235 219 216 210 210 210 214 221 222 218 214 211 210 217 222 222 204 229 259 268 247 254 265 264 258 241 240 236 235 234 249 223 197 208 350 250 202 184 191 243 249 256 273 312 247 236 230 242 253
239 240 224 226 228 235 211 200 197 203 206 215 217 215 213 208 203 201 204 217 219 223 242 249 265 261 255 251 251 243 238 235 233 229 235 205 183 229 193 206 220 213 234 239 242 245 246 264 282 294 267 252 245 229
226 231 231 222 224 202 198 189 197 205 211 207 210 210 208 207 202 183 167 188 196 219 220 281 270 243 247 240 243 249 244 232 229 230 231 213 199 193 229 249 250 208 216 226 230 262 276 271 279 305 310 234 203 197
218 233 230 208 195 195 181 192 200 208 199 198 202 201 204 206 200 191 178 157 149 186 204 224 261 297 206 210 218 210 201 211 227 229 203 205 192 194 231 218 205 209 213 218 234 243 250 271 271 267 253 205 205 203
212 190 183 180 177 182 191 199 199 193 188 183 185 190 192 195 195 202 211 214 229 221 243 293 149 242 193 254 251 221 218 165 239 261 225 175 200 209 206 190 193 197 200 210 240 249 250 253 261 242 213 214 218 216
173 181 176 170 179 187 190 189 186 183 178 170 173 176 174 164 183 188 191 199 202 210 226 221 221 202 177 160 286 277 221 229 192 206 202 278 207 139 172 161 187 199 207 205 184 163 169 169 153 165 174 182 192 179
168 170 167 167 168 170 171 177 177 170 169 174 167 141 133 153 159 171 193 182 173 200 211 222 212 208 225 153 204 244 243 184 235 201 211 178 269 130 175 169 183 196 201 201 189 180 187 177 163 162 165 170 169 164
170 165 165 164 168 178 175 174 173 172 171 169 151 134 133 168 170 163 182 170 167 205 204 171 200 201 197 196 173 208 228 154 226 115 224 216 209 123 170 184 180 190 203 192 180 176 173 164 158 161 162 158 152 150
151 157 160 169 172 171 172 178 178 176 166 146 147 134 142 160 174 184 173 261 210 207 188 172 192 173 163 198 215 183 216 225 111 172 214 227 69 77 195 198 179 179 180 177 178 174 164 161 153 153 150 140 131 139
157 165 168 173 175 174 173 173 178 178 161 145 147 122 167 166 226 182 183 181 105 206 2 208 210 206 186 181 199 221 173 113 221 183 227 47 20 351 276 213 168 169 175 166 162 158 155 150 147 146 144 131 129 138
158 157 164 174 177 180 181 179 179 168 152 158 130 170 177 136 64 57 64 113 23 356 350 237 219 197 215 240 205 135 188 194 200 219 75 357 350 350 3 115 134 148 145 155 151 147 141 135 135 134 129 124 128 125
146 128 115 143 147 164 183 180 168 172 113 87 55 87 37 86 359 39 29 44 358 347 315 246 262 246 214 194 210 198 143 210 193 6 15 13 44 75 118 129 122 121 128 134 136 136 134 132 131 126 122 120 119 118
137 118 118 134 163 152 157 168 72 67 70 57 54 67 64 63 80 68 31 0 352 356 57 327 267 4 353 42 342 354 343 49 195 73 64 80 97 112 116 119 117 116 121 124 123 124 123 121 121 123 120 113 114 113
127 139 141 168 158 151 126 72 72 63 65 53 65 38 65 67 81 49 28 13 29 49 12 117 326 51 18 288 129 327 41 69 85 81 88 102 111 112 119 116 113 117 119 120 121 118 118 121 119 107 105 105 107 101
115 128 150 140 136 115 79 54 46 86 71 84 92 75 78 83 56 55 55 67 67 78 93 41 62 66 75 351 346 33 82 110 114 94 97 106 109 112 114 113 115 117 119 118 120 117 114 112 105 102 99 103 101 97
123 152 149 144 154 84 77 48 56 84 82 108 99 76 76 77 62 44 51 59 68 56 48 42 55 333 305 327 337 44 92 144 134 118 105 105 108 117 117 118 118 120 119 117 113 110 110 108 103 98 95 91 90 88
94 105 114 121 72 68 80 61 67 82 112 93 107 91 86 58 42 34 28 26 60 36 67 35 7 3 352 5 128 136 148 163 168 159 134 122 125 127 124 120 121 120 117 114 112 109 109 102 99 95 89 86 76 64
140 134 101 71 77 74 71 49 77 79 72 87 56 53 47 39 32 23 35 44 58 30 31 16 27 79 111 111 108 129 145 168 156 141 132 129 126 123 120 119 126 120 116 108 104 102 99 96 92 87 77 63 52 34
137 116 68 55 86 61 38 43 68 39 67 65 56 51 41 47 47 26 70 59 65 14 36 48 76 92 113 110 113 114 127 141 136 130 130 128 128 124 123 122 118 114 110 105 98 91 88 80 71 59 43 25 6 348
105 59 36 40 35 45 34 32 44 54 71 60 60 68 39 33 51 61 74 49 11 30 74 93 110 108 111 117 111 116 122 128 128 126 128 132 130 122 119 113 110 108 104 94 84 74 62 43 14 358 345 331 322 315
92 16 20 6 23 33 36 20 4 38 65 35 81 65 19 22 69 60 66 60 41 70 92 111 127 130 116 110 109 108 117 128 129 127 121 118 117 115 113 109 105 98 85 70 44 12 351 339 329 325 320 317 316 316
69 22 44 7 7 55 360 62 33 19 10 66 42 13 46 69 68 82 38 152 124 112 113 118 122 123 116 114 117 121 121 122 122 127 122 121 116 112 109 100 91 57 5 336 331 321 317 315 317 319 321 322 322 321
53 344 35 29 27 39 46 45 44 56 59 42 349 341 54 73 89 119 150 144 142 138 132 130 130 130 125 125 124 124 126 128 136 140 131 115 104 86 345 320 328 324 321 317 316 319 323 324 323 322 321 322 322 320
60 36 55 4 52 37 89 42 35 28 10 344 305 41 74 55 114 155 158 144 141 134 131 132 130 130 129 129 132 135 135 141 151 159 186 242 271 282 296 287 303 308 311 317 321 323 322 321 321 318 317 318 319 319
40 3 55 26 45 50 46 56 301 325 320 349 103 97 153 81 136 136 138 139 138 134 131 131 134 133 133 140 140 152 190 210 230 246 274 284 298 317 319 320 319 316 315 317 317 316 315 313 312 313 316 317 319 320
12 26 94 51 52 40 15 11 25 60 89 105 96 109 95 101 116 123 128 135 136 136 135 132 130 128 143 211 242 243 247 253 269 279 290 300 315 315 309 308 309 307 308 310 309 306 303 302 302 303 304 306 308 308
29 38 54 58 80 28 61 89 85 81 84 93 105 99 97 104 97 104 134 153 157 155 158 169 211 242 251 257 262 273 289 292 299 301 303 307 310 309 305 303 302 302 301 300 301 302 302 302 303 304 304 304 306 306
37 39 56 68 82 41 70 56 55 76 66 70 54 63 70 81 127 149 128 169 197 196 195 221 234 247 264 280 291 301 306 304 302 303 304 303 302 300 300 300 298 296 298 301 302 302 302 302 304 305 306 307 308 308
45 33 47 48 39 35 8 16 51 70 66 68 50 42 53 121 154 141 188 178 193 214 233 260 274 288 294 299 299 303 307 305 306 308 307 307 305 299 295 296 296 296 296 297 299 300 301 302 302 304 305 306 307 308